TimeAKDT,TemperatureF,Dew PointF,Humidity,Sea Level PressureIn,VisibilityMPH,Wind Direction,Wind SpeedMPH,Gust SpeedMPH,PrecipitationIn,Events,Conditions,WindDirDegrees,DateUTC
12:53 AM,48.9,41.0,74,29.90,10.0,NE,3.5,-,N/A,,Mostly Cloudy,40,2013-05-27 08:53:00
1:53 AM,48.9,41.0,74,29.90,10.0,Calm,Calm,-,N/A,,Mostly Cloudy,0,2013-05-27 09:53:00
2:53 AM,48.0,41.0,77,29.90,10.0,Calm,Calm,-,N/A,,Mostly Cloudy,0,2013-05-27 10:53:00
3:53 AM,48.0,39.9,74,29.91,10.0,East,3.5,-,N/A,,Mostly Cloudy,90,2013-05-27 11:53:00
4:53 AM,45.0,39.9,82,29.90,10.0,Calm,Calm,-,N/A,,Scattered Clouds,0,2013-05-27 12:53:00
5:53 AM,45.0,39.0,80,29.89,10.0,Calm,Calm,-,N/A,,Scattered Clouds,0,2013-05-27 13:53:00
6:53 AM,50.0,41.0,71,29.89,10.0,Calm,Calm,-,N/A,,Mostly Cloudy,0,2013-05-27 14:53:00
7:53 AM,54.0,41.0,62,29.88,10.0,Calm,Calm,-,N/A,,Mostly Cloudy,0,2013-05-27 15:53:00
8:53 AM,57.0,39.9,53,29.88,10.0,NW,3.5,-,N/A,,Scattered Clouds,320,2013-05-27 16:53:00
9:53 AM,57.0,39.9,53,29.87,10.0,NNW,3.5,-,N/A,,Scattered Clouds,330,2013-05-27 17:53:00
10:53 AM,60.1,39.9,47,29.86,10.0,NNW,3.5,-,N/A,,Scattered Clouds,330,2013-05-27 18:53:00
11:53 AM,63.0,39.9,43,29.85,10.0,NNW,3.5,-,N/A,,Scattered Clouds,330,2013-05-27 19:53:00
12:53 PM,66.0,39.9,38,29.83,10.0,Variable,5.8,-,N/A,,Scattered Clouds,0,2013-05-27 20:53:00
1:53 PM,70.0,39.0,32,29.82,10.0,North,4.6,-,N/A,,Scattered Clouds,350,2013-05-27 21:53:00
2:53 PM,70.0,37.9,31,29.81,10.0,Variable,3.5,-,N/A,,Scattered Clouds,0,2013-05-27 22:53:00
3:53 PM,70.0,43.0,38,29.79,10.0,South,10.4,-,N/A,,Scattered Clouds,170,2013-05-27 23:53:00
4:53 PM,70.0,39.9,33,29.78,10.0,SW,9.2,-,N/A,,Scattered Clouds,220,2013-05-28 00:53:00
5:53 PM,71.1,39.9,32,29.77,10.0,South,10.4,-,N/A,,Scattered Clouds,180,2013-05-28 01:53:00
6:53 PM,72.0,41.0,33,29.76,10.0,South,11.5,-,N/A,,Scattered Clouds,170,2013-05-28 02:53:00
7:53 PM,69.1,39.9,35,29.75,10.0,South,9.2,-,N/A,,Scattered Clouds,180,2013-05-28 03:53:00
8:53 PM,66.9,39.0,36,29.75,10.0,South,8.1,-,N/A,,Partly Cloudy,170,2013-05-28 04:53:00
9:53 PM,64.9,39.0,39,29.75,10.0,South,6.9,-,N/A,,Partly Cloudy,170,2013-05-28 05:53:00
10:53 PM,55.9,39.0,53,29.76,10.0,West,10.4,-,N/A,,Partly Cloudy,260,2013-05-28 06:53:00
11:53 PM,53.1,39.0,59,29.77,10.0,SW,5.8,-,N/A,,Partly Cloudy,220,2013-05-28 07:53:00